Location: Newark
(33.9439°N, 86.0617°W)
Time: 19:46:46
(UTC+00:00)

Hubble Space Telescope - Visible Passes

Search period start: 21 January 2020 00:00
Search period end: 31 January 2020 00:00
Orbit: 536 x 540 km, 28.5° (Epoch: 20 January)

Date Brightness Start Highest point End Pass type
(mag) Time Alt. Az. Time Alt. Az. Time Alt. Az.
29 Jan 2.8 12:07:57 10° SW 12:11:19 24° SSE 12:14:41 10° ESE visible
30 Jan 3.6 10:20:06 11° SSE 10:20:06 11° SSE 10:21:20 10° SE visible
30 Jan 2.5 11:57:06 10° SW 12:00:37 28° SSE 12:04:10 10° ESE visible
